TimeEST,TemperatureF,Dew PointF,Humidity,Sea Level PressureIn,VisibilityMPH,Wind Direction,Wind SpeedMPH,Gust SpeedMPH,PrecipitationIn,Events,Conditions,WindDirDegrees,DateUTC
12:54 AM,34.0,28.9,82,30.11,10.0,SSW,11.5,-,N/A,,Overcast,210,2013-01-06 05:54:00
1:54 AM,34.0,30.0,85,30.09,10.0,SW,9.2,-,N/A,,Overcast,220,2013-01-06 06:54:00
2:54 AM,35.1,28.9,78,30.08,10.0,SW,10.4,-,N/A,,Overcast,220,2013-01-06 07:54:00
3:54 AM,35.1,30.0,82,30.07,10.0,SW,11.5,-,N/A,,Overcast,220,2013-01-06 08:54:00
4:54 AM,35.1,30.0,82,30.04,10.0,SW,12.7,-,N/A,,Overcast,220,2013-01-06 09:54:00
5:54 AM,35.1,30.0,82,30.03,10.0,SW,11.5,-,N/A,,Overcast,230,2013-01-06 10:54:00
6:54 AM,35.1,30.0,82,30.03,10.0,SW,10.4,-,N/A,,Overcast,220,2013-01-06 11:54:00
7:54 AM,35.1,30.9,85,30.04,10.0,SW,11.5,-,N/A,,Overcast,220,2013-01-06 12:54:00
8:54 AM,35.1,30.9,85,30.05,10.0,SW,12.7,-,N/A,,Overcast,230,2013-01-06 13:54:00
9:30 AM,35.6,30.2,81,30.03,9.0,SW,10.4,-,N/A,,Overcast,230,2013-01-06 14:30:00
10:25 AM,30.2,26.6,86,30.06,7.0,WNW,23.0,32.2,0.00,,Overcast,290,2013-01-06 15:25:00
10:41 AM,30.2,24.8,80,30.07,7.0,West,24.2,29.9,0.00,,Overcast,280,2013-01-06 15:41:00
10:54 AM,30.0,25.0,82,30.10,9.0,West,18.4,-,0.00,,Overcast,260,2013-01-06 15:54:00
11:10 AM,30.2,23.0,75,30.09,10.0,West,21.9,31.1,N/A,,Overcast,270,2013-01-06 16:10:00
11:54 AM,28.9,21.9,75,30.11,10.0,West,23.0,-,N/A,,Overcast,280,2013-01-06 16:54:00
12:54 PM,28.4,23.0,80,30.09,8.0,West,18.4,-,N/A,,Overcast,280,2013-01-06 17:54:00
1:54 PM,28.9,24.1,82,30.12,6.0,West,17.3,-,N/A,,Haze,280,2013-01-06 18:54:00
2:54 PM,28.0,21.0,75,30.16,7.0,WNW,15.0,-,N/A,,Overcast,300,2013-01-06 19:54:00
3:54 PM,26.6,19.4,74,30.19,6.0,WNW,12.7,-,N/A,,Haze,300,2013-01-06 20:54:00
4:54 PM,27.0,21.0,78,30.25,5.0,NW,10.4,-,N/A,,Haze,320,2013-01-06 21:54:00
5:54 PM,27.0,21.0,78,30.28,6.0,NW,6.9,-,N/A,,Haze,310,2013-01-06 22:54:00
6:54 PM,26.6,21.2,80,30.29,8.0,West,13.8,-,N/A,,Overcast,270,2013-01-06 23:54:00
7:54 PM,25.0,19.9,81,30.34,8.0,West,6.9,-,N/A,,Mostly Cloudy,270,2013-01-07 00:54:00
8:54 PM,27.0,21.9,81,30.36,10.0,WNW,10.4,-,N/A,,Overcast,300,2013-01-07 01:54:00
9:54 PM,27.0,21.0,78,30.37,10.0,WNW,10.4,-,N/A,,Mostly Cloudy,290,2013-01-07 02:54:00
10:54 PM,25.0,19.9,81,30.39,10.0,WNW,8.1,-,N/A,,Mostly Cloudy,290,2013-01-07 03:54:00
11:54 PM,26.1,21.0,81,30.40,10.0,NW,8.1,-,N/A,,Mostly Cloudy,310,2013-01-07 04:54:00